Location: Utrecht
(52.0907°N, 5.1214°E)
Time: 18:02:51
(UTC+02:00)

KKS-1 - Pass Details

Date: 29 June 2022
Orbit: 634 x 649 km, 98.2° (Epoch: 18 August)

Event Time Altitude Azimuth Distance (km) Brightness Sun altitude
Rises 22:54:22 0° 23° (NNE) 2,981 ? -6.2°
Reaches altitude 10° 22:56:55 10° 36° (NE) 2,064 ? -6.4°
Maximum altitude 23:00:41 26° 93° (E) 1,288 ? -6.8°
Drops below altitude 10° 23:04:25 10° 150° (SSE) 2,045 ? -7.1°
Enters shadow 23:04:44 - 153° (SSE) 2,154 ? -7.2°
